[[{"header":{"parameterUnit":"m.s-1","parameterCategory":1,"la1":30.2991,"la2":30.254,"lo1":-89.0895,"lo2":-89.0444,"dy":0.0017,"dx":0.0017,"nx":28,"ny":28,"refTime":"2024-06-29T03:00:00:Z","depth":0,"parameterNumber":2,"parameterNumberName":"U-component_of_WINDS"},"data":[0,0,0,0,0,0,0,0,0,0,0,0,0,0,0,0,0,0,0,0,0,0,0,0,0,0,0,0,0,0,0,0,0,0,0,0,0,0,0,0,0,0,0,0,0,0,0,0,0,0,0,0,0,0,0,0,0,0,2.7852,2.7852,0,2.7898,2.7899,2.7899,2.7885,2.7884,2.7883,2.7882,2.7928,2.793,2.7932,0,0,0,0,0,0,0,0,0,0,0,0,0,2.7746,2.7748,2.7851,2.7852,2.7853,2.7898,2.7899,2.7899,2.7885,2.7884,2.7883,2.7882,2.7927,2.793,2.7932,0,0,0,0,0,0,0,0,0,0,0,0,0,2.7792,2.7748,2.7851,2.7851,2.7852,2.7898,2.7899,2.79,2.7886,2.7884,2.7883,2.7881,2.7926,2.7929,2.7933,2.7982,0,0,2.7942,2.7944,0,0,0,0,0,0,0,0,2.7789,2.7796,2.7851,2.7851,2.7852,2.7884,2.7878,2.7927,2.7886,2.7873,2.7882,2.7881,2.7914,2.7919,2.793,2.7984,2.7986,2.7943,2.7945,2.7946,2.7947,0,0,0,0,0,0,0,2.7786,2.7794,2.787,2.7851,2.7852,2.7847,2.7852,2.7887,2.7901,2.7874,2.7873,2.7879,2.7915,2.7927,2.7931,2.7986,2.7943,2.7945,2.7947,2.7949,2.8078,2.8079,0,0,0,0,0,0,2.7783,2.7791,2.7868,2.7871,2.7816,2.785,2.7856,2.7875,2.7901,2.7903,2.788,2.7878,2.7923,2.7928,2.7933,2.7989,2.7946,2.7949,2.7951,2.8076,2.8078,2.808,0,0,0,0,0,0,2.7781,2.779,2.7867,2.7831,2.784,2.7854,2.7876,2.7877,2.789,2.7905,2.7907,2.7891,2.7922,2.7929,2.7969,2.799,2.795,2.7953,2.8075,2.8077,2.8079,2.8103,0,0,0,0,0,0,2.7778,2.7789,2.7809,2.7832,2.7842,2.7903,2.7877,2.7879,2.7896,2.7894,2.7916,2.7918,2.7921,2.7964,2.7972,2.7994,2.7956,2.8073,2.8076,2.8078,2.81,2.8106,2.8111,0,0,0,0,0,2.7774,2.7815,2.781,2.782,2.7868,2.7904,2.791,2.7913,2.7898,2.7917,2.7926,2.7918,2.7987,2.7968,2.7977,2.8001,2.8071,2.8075,2.8078,2.8098,2.8105,2.8111,0,0,0,0,0,0,2.7795,2.7818,2.7813,2.7863,2.7881,2.7902,2.7926,2.7921,2.7944,2.7941,2.7943,2.7948,2.7989,2.7999,2.7978,2.8047,2.8027,2.8032,2.8039,2.8046,2.8051,2.8046,2.7958,0,0,0,0,0,2.7805,2.7834,2.7852,2.7894,2.7903,2.7913,2.7929,2.793,2.7949,2.7957,2.797,2.7988,2.8013,2.803,2.8055,2.8102,2.8105,2.8122,2.8128,2.8132,2.8136,2.8158,2.8165,2.8091,2.8091,2.8091,0,0,2.7826,2.7842,2.7861,2.7898,2.7913,2.7941,2.792,2.7952,2.7971,2.7962,2.8,2.8009,2.803,2.8073,2.8093,2.8083,2.8157,2.8136,2.8139,2.8141,2.8162,2.8169,2.8175,2.8093,2.8093,2.8093,0,0,2.7879,2.7896,2.793,2.7945,2.7967,2.7973,2.7981,2.8002,2.8008,2.8047,2.8039,2.8062,2.8108,2.8121,2.8134,2.8189,2.8181,2.8197,2.8223,2.8245,2.8251,2.8256,2.8272,2.8279,2.8202,2.8202,2.8202,0,2.7902,2.7945,2.7949,2.798,2.7995,2.7987,2.8021,2.8035,2.8064,2.8074,2.8063,2.8117,2.8131,2.8175,2.8188,2.82,2.8207,2.8194,2.825,2.8255,2.826,2.8276,2.8282,2.8203,2.8203,2.8203,2.8203,0,2.7971,2.8001,2.8026,2.8054,2.8072,2.8104,2.8111,2.8128,2.8127,2.8133,2.8171,2.8186,2.8213,2.8224,2.8223,2.8267,2.826,2.825,2.8228,2.8268,2.8283,2.8289,2.8206,2.8205,2.8205,2.8204,0,0,2.8039,2.8066,2.8075,2.8086,2.8109,2.8131,2.8162,2.8188,2.8201,2.8222,2.8245,2.8283,2.8272,2.8287,2.8287,2.8307,2.8345,2.8293,2.8294,2.83,2.8391,2.8397,2.8404,2.8341,2.8342,2.8343,2.8388,0,2.8091,2.8145,2.8148,2.8197,2.8222,2.8214,2.824,2.8256,2.8263,2.8284,2.8291,2.8316,2.8302,2.831,2.8329,2.8337,2.8363,2.8334,2.8361,2.8362,2.8353,2.8413,2.842,2.8462,2.8395,2.8396,2.8396,0,2.816,2.818,2.8232,2.8248,2.8259,2.8283,2.8304,2.8326,2.8343,2.8346,2.8361,2.8358,2.8387,2.8366,2.8405,2.8385,2.8396,2.8401,2.8403,2.8404,2.838,2.8412,2.8476,2.8481,2.8406,2.8405,2.8405,0,2.8199,2.8241,2.8276,2.8286,2.8307,2.8323,2.8332,2.8348,2.8362,2.8381,2.839,2.8412,2.8424,2.8441,2.8443,2.8428,2.848,2.8461,2.8481,2.8481,2.8491,2.849,2.8555,2.8503,2.8503,2.8503,2.8503,0,2.8256,2.8287,2.8293,2.8315,2.8348,2.835,2.8382,2.839,2.8404,2.8425,2.842,2.844,2.8443,2.8463,2.8465,2.8495,2.8501,2.8502,2.8502,2.8501,2.8501,2.8507,2.8503,2.8504,2.8504,2.8504,2.8503,0,2.8306,2.8312,2.8349,2.8365,2.837,2.8393,2.8406,2.8426,2.8431,2.8458,2.8464,2.8472,2.8495,2.8499,2.8527,2.8528,2.8563,2.8561,2.8557,2.8556,2.8575,2.8572,2.8644,2.8653,2.8597,2.8598,2.8598,0,2.8341,2.8364,2.8382,2.8396,2.8405,2.8428,2.8442,2.8444,2.8459,2.8478,2.8495,2.8517,2.8535,2.8572,2.8579,2.86,2.8596,2.862,2.8599,2.8597,2.8593,2.8591,2.8592,2.8623,2.8624,2.8625,2.8625,0,2.84,2.8401,2.8422,2.8443,2.846,2.8476,2.8492,2.8504,2.8507,2.8524,2.8547,2.8561,2.8588,2.8609,2.8629,2.8637,2.8631,2.8632,2.8637,2.8636,2.8631,2.8631,2.8565,2.863,2.8629,2.8629,2.8629,2.8628,2.8442,2.8461,2.8475,2.8498,2.8509,2.8524,2.8541,2.8548,2.8568,2.859,2.859,2.8615,2.8628,2.8654,2.8663,2.8682,2.8674,2.8683,2.8684,2.8686,2.8686,2.863,2.8686,2.8686,2.8685,2.8685,2.8685,0,2.8499,2.8507,2.8528,2.8549,2.8566,2.8559,2.8576,2.859,2.8612,2.8625,2.8642,2.8667,2.8688,2.8696,2.8716,2.8728,2.8726,2.8733,2.8731,2.8732,2.8694,2.8686,2.8735,2.8735,2.8735,2.8735,2.8735,2.8735,2.853,2.8561,2.8563,2.8599,2.8607,2.8631,2.864,2.8652,2.8663,2.8691,2.8708,2.8713,2.8724,2.8744,2.8761,2.8763,2.8769,2.8777,2.8777,2.8741,2.8735,2.8731,2.8723,2.8779,2.8779,2.8814,2.8815,2.8815]},{"header":{"parameterUnit":"m.s-1","parameterCategory":1,"la1":30.2991,"la2":30.254,"lo1":-89.0895,"lo2":-89.0444,"dy":0.0017,"dx":0.0017,"nx":28,"ny":28,"refTime":"2024-06-29T03:00:00:Z","depth":0,"parameterNumber":3,"parameterNumberName":"V-component_of_WINDS"},"data":[0,0,0,0,0,0,0,0,0,0,0,0,0,0,0,0,0,0,0,0,0,0,0,0,0,0,0,0,0,0,0,0,0,0,0,0,0,0,0,0,0,0,0,0,0,0,0,0,0,0,0,0,0,0,0,0,0,0,5.8125,5.8127,0,5.8261,5.8263,5.8264,5.8239,5.8237,5.8235,5.8232,5.8365,5.8371,5.8376,0,0,0,0,0,0,0,0,0,0,0,0,0,5.7836,5.7841,5.8125,5.8127,5.8129,5.8261,5.8263,5.8265,5.824,5.8237,5.8234,5.8231,5.8363,5.837,5.8377,0,0,0,0,0,0,0,0,0,0,0,0,0,5.7965,5.7843,5.8125,5.8132,5.8134,5.8261,5.8263,5.8265,5.824,5.8237,5.8233,5.823,5.8361,5.8369,5.8378,5.8503,0,0,5.8404,5.8408,0,0,0,0,0,0,0,0,5.7958,5.7976,5.8129,5.8132,5.8134,5.823,5.8209,5.8345,5.8241,5.82,5.8232,5.8228,5.8323,5.8334,5.8367,5.8509,5.8515,5.8405,5.841,5.8414,5.8417,0,0,0,0,0,0,0,5.7949,5.797,5.8179,5.8132,5.8135,5.8126,5.8141,5.8235,5.8279,5.8203,5.8202,5.8219,5.8323,5.8359,5.837,5.8517,5.8405,5.8413,5.8418,5.8421,5.8766,5.8769,0,0,0,0,0,0,5.7939,5.7963,5.8174,5.8183,5.8036,5.8134,5.815,5.8203,5.8279,5.8287,5.8222,5.8217,5.8346,5.836,5.8375,5.8525,5.8414,5.8422,5.8427,5.8762,5.8767,5.8771,0,0,0,0,0,0,5.7933,5.7958,5.8169,5.8073,5.8099,5.8143,5.8202,5.8207,5.8243,5.8292,5.8299,5.8251,5.8344,5.8363,5.8471,5.8529,5.8426,5.8434,5.8757,5.8763,5.8769,5.8827,0,0,0,0,0,0,5.7925,5.7956,5.8006,5.8074,5.8104,5.8266,5.8206,5.8213,5.8259,5.8254,5.8322,5.8329,5.8342,5.8459,5.848,5.8539,5.8441,5.8752,5.876,5.8767,5.882,5.8834,5.8846,0,0,0,0,0,5.7914,5.8016,5.8009,5.8035,5.8168,5.8269,5.8286,5.8301,5.8264,5.8313,5.8344,5.8327,5.852,5.847,5.8494,5.8557,5.8748,5.8758,5.8766,5.8814,5.8831,5.8846,0,0,0,0,0,0,5.7952,5.8025,5.8018,5.8145,5.8202,5.8265,5.8328,5.8319,5.8386,5.8378,5.8392,5.8407,5.8517,5.8548,5.8491,5.868,5.8628,5.8642,5.8657,5.8673,5.8686,5.8676,5.8448,0,0,0,0,0,5.7976,5.8055,5.8113,5.8219,5.8248,5.8283,5.8328,5.8335,5.8392,5.8415,5.8455,5.8509,5.8582,5.8629,5.8699,5.8824,5.8837,5.8879,5.8892,5.8903,5.8914,5.898,5.8999,5.88,5.88,5.88,0,0,5.8025,5.8074,5.8123,5.8228,5.8273,5.8351,5.8303,5.8389,5.8446,5.8428,5.8533,5.8563,5.8625,5.8742,5.8796,5.8771,5.8972,5.8914,5.8922,5.8928,5.8991,5.901,5.9027,5.8806,5.8805,5.8804,0,0,5.8153,5.82,5.8293,5.8339,5.8407,5.8429,5.8451,5.8516,5.8536,5.8642,5.8629,5.8696,5.8822,5.8866,5.8905,5.9048,5.9033,5.907,5.9138,5.9202,5.9218,5.9232,5.9281,5.9299,5.9082,5.9082,5.9082,0,5.8205,5.8325,5.8341,5.8428,5.8473,5.8462,5.8555,5.8597,5.8684,5.8714,5.8686,5.8842,5.8882,5.9008,5.9043,5.9076,5.9099,5.9062,5.9215,5.9229,5.9242,5.9289,5.9308,5.9086,5.9085,5.9085,5.9084,0,5.8384,5.8467,5.8533,5.8619,5.8672,5.8761,5.8788,5.8839,5.8841,5.8865,5.8972,5.902,5.9098,5.9129,5.9131,5.9255,5.9237,5.9212,5.9159,5.9264,5.9309,5.9327,5.9091,5.909,5.9089,5.9088,0,0,5.8541,5.8634,5.8658,5.8696,5.8769,5.8832,5.8919,5.8998,5.904,5.91,5.9171,5.9277,5.9253,5.9297,5.9304,5.936,5.9468,5.9328,5.9329,5.9351,5.9605,5.9622,5.9643,5.9459,5.9463,5.9466,5.9599,0,5.8675,5.8832,5.8848,5.8987,5.9062,5.9051,5.9126,5.9178,5.9203,5.9268,5.9294,5.9368,5.9333,5.9359,5.9414,5.9443,5.9519,5.9434,5.9523,5.9526,5.9507,5.9667,5.9687,5.981,5.9616,5.9619,5.9622,0,5.8854,5.892,5.9066,5.9128,5.916,5.9228,5.93,5.9363,5.942,5.9434,5.9482,5.9481,5.9567,5.9513,5.963,5.9572,5.9609,5.9629,5.9634,5.9642,5.958,5.9678,5.985,5.9868,5.9649,5.9647,5.9645,0,5.8951,5.9077,5.918,5.9213,5.9288,5.9335,5.9368,5.9422,5.9467,5.9529,5.9558,5.9629,5.9667,5.972,5.9737,5.9696,5.9853,5.98,5.9864,5.9864,5.9897,5.9895,6.0077,5.9924,5.9923,5.9923,5.9923,0,5.9099,5.9189,5.9225,5.9289,5.9388,5.9404,5.9501,5.953,5.9578,5.9645,5.9639,5.9702,5.972,5.9785,5.9798,5.9892,5.991,5.9921,5.9923,5.9921,5.992,5.9945,5.9936,5.9928,5.9927,5.9926,5.9925,0,5.9225,5.9254,5.9365,5.9427,5.9444,5.9514,5.9565,5.9625,5.9648,5.9733,5.9753,5.9789,5.9865,5.9887,5.9977,5.9986,6.0096,6.0091,6.0077,6.0077,6.0139,6.0133,6.0343,6.0371,6.02,6.0202,6.0203,0,5.9317,5.9386,5.9455,5.9501,5.9536,5.9609,5.9655,5.9673,5.9721,5.979,5.9841,5.9916,5.9977,6.0098,6.013,6.0199,6.0195,6.0264,6.0205,6.02,6.0194,6.0189,6.0195,6.0274,6.0276,6.0278,6.0279,0,5.9477,5.9488,5.9556,5.9629,5.9685,5.9743,5.9798,5.9835,5.986,5.9914,5.9992,6.004,6.0132,6.0206,6.0275,6.0306,6.0296,6.0297,6.0315,6.0313,6.0302,6.0307,6.0106,6.0292,6.0291,6.029,6.0289,6.0288,5.9588,5.9648,5.9706,5.9781,5.9825,5.9877,5.9935,5.9966,6.0032,6.0111,6.0116,6.02,6.0253,6.0345,6.0379,6.0443,6.0423,6.045,6.0456,6.0462,6.0467,6.0293,6.0456,6.0456,6.0455,6.0455,6.0455,0,5.9746,5.9783,5.9852,5.9931,5.9989,5.9977,6.0037,6.0086,6.0161,6.0212,6.0272,6.0361,6.0432,6.047,6.054,6.0583,6.058,6.0601,6.0597,6.0604,6.0482,6.0459,6.0602,6.0602,6.0602,6.0602,6.0602,6.0602,5.9836,5.9936,5.9952,6.0073,6.0108,6.0192,6.0227,6.0273,6.0314,6.0414,6.0474,6.0498,6.0543,6.0616,6.068,6.0688,6.0714,6.0737,6.0743,6.0628,6.0613,6.0598,6.0576,6.0742,6.0743,6.0859,6.086,6.0861]}]]